Location: Lane
(33.5226°N, 79.8788°W)
Time: 19:54:53
(UTC+00:00)

Explorer 11/Cluster Stage 4 - Pass Details

Date: 06 October 2022
Orbit: 466 x 1247 km, 28.8° (Epoch: 01 December)

Event Time Altitude Azimuth Distance (km) Brightness Sun altitude
Rises 20:17:01 0° 272° (W) 4,041 11.0 30.7°
Reaches altitude 10° 20:20:25 10° 262° (W) 2,981 10.8 30.1°
Maximum altitude 20:26:32 29° 206° (SSW) 1,730 9.6 29.0°
Drops below altitude 10° 20:31:45 10° 148° (SSE) 2,513 9.2 28.0°
Sets 20:34:23 0° 137° (SE) 3,314 9.7 27.6°
